[[{"header":{"parameterUnit":"m.s-1","parameterCategory":1,"la1":30.2991,"la2":30.254,"lo1":-89.0895,"lo2":-89.0444,"dy":0.0017,"dx":0.0017,"nx":28,"ny":28,"refTime":"2025-03-24T09:00:00:Z","depth":0,"parameterNumber":2,"parameterNumberName":"U-component_of_WINDS"},"data":[0,0,0,0,0,0,0,0,0,0,0,0,0,0,0,0,0,0,0,0,0,0,0,0,0,0,0,0,0,0,0,0,0,0,0,0,0,0,0,0,0,0,0,0,0,0,0,0,0,0,0,0,0,0,0,0,0,0,0.9918,0.9919,0,0.9987,0.9988,0.9989,1.001,1.0009,1.0009,1.0009,1.0081,1.0084,1.0086,0,0,0,0,0,0,0,0,0,0,0,0,0,0.9806,0.9808,0.9918,0.9919,0.992,0.9987,0.9988,0.9989,1.001,1.0009,1.0009,1.0009,1.0081,1.0083,1.0086,0,0,0,0,0,0,0,0,0,0,0,0,0,0.9863,0.9808,0.9918,0.9938,0.9941,0.9987,0.9988,0.9989,1.001,1.0009,1.0009,1.0008,1.008,1.0083,1.0086,1.0118,0,0,1.0097,1.0098,0,0,0,0,0,0,0,0,0.9859,0.9867,0.9935,0.9937,0.994,0.9989,0.9975,1.0033,1.001,0.9984,1.0009,1.0008,1.0051,1.0057,1.0071,1.0121,1.0124,1.0097,1.0099,1.0101,1.0101,0,0,0,0,0,0,0,0.9855,0.9864,0.9946,0.9935,0.9939,0.9945,0.9952,0.9986,1.002,0.9986,0.9988,0.9995,1.0053,1.0068,1.0073,1.0125,1.0097,1.01,1.0102,1.0103,1.0205,1.0206,0,0,0,0,0,0,0.9848,0.9861,0.9943,0.9948,0.9897,0.9947,0.9955,0.9974,1.0019,1.0026,0.9996,0.9996,1.0062,1.0069,1.0076,1.0115,1.0101,1.0104,1.0106,1.0204,1.0205,1.0206,0,0,0,0,0,0,0.9845,0.9855,0.9941,0.9905,0.9916,0.9949,0.997,0.9976,0.9991,1.0027,1.0033,1.0005,1.0062,1.0071,1.0107,1.0118,1.0105,1.0108,1.0204,1.0205,1.0206,1.0195,0,0,0,0,0,0,0.9842,0.9854,0.9866,0.9905,0.9918,0.997,0.9971,0.9977,0.9996,0.9998,1.0037,1.0043,1.0062,1.0102,1.011,1.0123,1.0111,1.0203,1.0204,1.0205,1.0195,1.0196,1.0197,0,0,0,0,0,0.9838,0.9861,0.9866,0.9876,0.9933,0.9971,0.9979,1.0,0.9997,1.001,1.0033,1.0042,1.0116,1.0105,1.0115,1.0129,1.0202,1.0204,1.0205,1.0194,1.0196,1.0197,0,0,0,0,0,0,0.9823,0.9866,0.9873,0.9909,0.9936,0.9974,0.9991,1.0,1.0029,1.0029,1.0055,1.0063,1.0098,1.0117,1.0105,1.0162,1.0159,1.0163,1.0148,1.0149,1.015,1.0145,1.0114,0,0,0,0,0,0.9824,0.985,0.9887,0.9915,0.9928,0.9957,0.9974,0.9988,1.0018,1.0029,1.0055,1.0084,1.0113,1.0132,1.0162,1.0198,1.0207,1.0212,1.0213,1.0213,1.0216,1.0237,1.0239,1.0211,1.0211,1.0211,0,0,0.9826,0.9853,0.9868,0.9913,0.9935,0.9962,0.9967,0.9995,1.0016,1.0034,1.0069,1.0089,1.0123,1.0159,1.0176,1.0176,1.0226,1.0215,1.0215,1.0218,1.0238,1.0241,1.0243,1.0212,1.0212,1.0212,0,0,0.9843,0.9866,0.9892,0.9915,0.9949,0.9968,0.9974,1.0011,1.0025,1.0061,1.0075,1.01,1.015,1.0174,1.0192,1.0219,1.0228,1.0228,1.0233,1.0252,1.0254,1.0257,1.0266,1.0269,1.023,1.023,1.023,0,0.9842,0.9883,0.9904,0.9932,0.9952,0.9969,0.9995,1.0016,1.0058,1.0071,1.0071,1.0134,1.0158,1.02,1.0206,1.0221,1.0229,1.0223,1.0252,1.0255,1.0257,1.0266,1.027,1.023,1.023,1.023,1.023,0,0.9879,0.9907,0.9924,0.9964,0.9985,1.0012,1.0038,1.0057,1.0069,1.0089,1.0125,1.0155,1.019,1.0201,1.0213,1.0245,1.0244,1.0247,1.0245,1.0259,1.0268,1.0272,1.023,1.023,1.023,1.023,0,0,0.9889,0.994,0.9946,0.9964,1.0003,1.0025,1.0053,1.0087,1.0103,1.0132,1.0156,1.0198,1.0202,1.0223,1.0238,1.0255,1.0274,1.0257,1.0258,1.0259,1.0311,1.0307,1.0311,1.0281,1.0282,1.0282,1.0308,0,0.9911,0.9961,0.9982,1.0022,1.0049,1.0066,1.009,1.0117,1.0136,1.0161,1.0183,1.0212,1.0214,1.0227,1.0245,1.0268,1.0285,1.0267,1.0304,1.0305,1.0295,1.0316,1.0313,1.0335,1.0311,1.0312,1.0312,0,0.9944,0.9972,1.0015,1.0051,1.0063,1.0084,1.0117,1.0141,1.0172,1.0185,1.0208,1.0222,1.0253,1.0249,1.0291,1.0278,1.0295,1.0309,1.031,1.0314,1.0309,1.032,1.0343,1.0346,1.0318,1.0318,1.0317,0,0.9946,0.9995,1.0027,1.0042,1.0085,1.0099,1.0118,1.0148,1.0167,1.0196,1.0209,1.0241,1.0259,1.0284,1.0307,1.0302,1.0347,1.0345,1.0359,1.0358,1.0368,1.0367,1.0393,1.0378,1.0378,1.0378,1.0378,0,0.9969,0.9995,1.0029,1.0049,1.0078,1.0102,1.013,1.015,1.0177,1.0201,1.0218,1.024,1.0269,1.0295,1.0313,1.0346,1.0354,1.0365,1.037,1.0363,1.0362,1.0375,1.0374,1.0379,1.0379,1.0379,1.0379,0,0.9977,1.0001,1.0037,1.0074,1.0084,1.0104,1.0136,1.0156,1.0175,1.0206,1.0214,1.0245,1.0277,1.0302,1.0344,1.0356,1.039,1.0396,1.038,1.0382,1.0394,1.0392,1.0429,1.0435,1.0417,1.0417,1.0417,0,0.9989,1.001,1.0049,1.0066,1.0084,1.0111,1.0131,1.0155,1.0174,1.0211,1.0227,1.026,1.0287,1.0337,1.0364,1.0396,1.0402,1.0413,1.0407,1.04,1.0402,1.04,1.0402,1.0413,1.0413,1.0413,1.0413,0,1.0009,1.002,1.0047,1.0079,1.0101,1.0127,1.0154,1.0167,1.0196,1.0217,1.025,1.0271,1.0313,1.0346,1.0381,1.04,1.0412,1.0415,1.042,1.0413,1.0403,1.0409,1.0381,1.0414,1.0414,1.0414,1.0414,1.0414,1.002,1.0039,1.0069,1.0099,1.0121,1.0145,1.0166,1.0188,1.0215,1.0251,1.0264,1.0297,1.0328,1.0375,1.0395,1.0422,1.0423,1.043,1.0431,1.0433,1.0432,1.0399,1.0428,1.0428,1.0429,1.0429,1.0429,0,1.0041,1.0061,1.0088,1.0124,1.0148,1.0156,1.0185,1.0205,1.0233,1.0261,1.0287,1.0325,1.0356,1.0385,1.0419,1.0434,1.0441,1.0442,1.0441,1.0446,1.0429,1.0422,1.0437,1.0437,1.0437,1.0437,1.0437,1.0437,1.0054,1.0086,1.01,1.0143,1.0164,1.0196,1.0212,1.0235,1.0257,1.0297,1.0324,1.0342,1.037,1.0406,1.0435,1.0443,1.0454,1.0455,1.0464,1.0448,1.0447,1.0446,1.0439,1.0457,1.0457,1.0478,1.0478,1.0478]},{"header":{"parameterUnit":"m.s-1","parameterCategory":1,"la1":30.2991,"la2":30.254,"lo1":-89.0895,"lo2":-89.0444,"dy":0.0017,"dx":0.0017,"nx":28,"ny":28,"refTime":"2025-03-24T09:00:00:Z","depth":0,"parameterNumber":3,"parameterNumberName":"V-component_of_WINDS"},"data":[0,0,0,0,0,0,0,0,0,0,0,0,0,0,0,0,0,0,0,0,0,0,0,0,0,0,0,0,0,0,0,0,0,0,0,0,0,0,0,0,0,0,0,0,0,0,0,0,0,0,0,0,0,0,0,0,0,0,2.1203,2.1203,0,2.1215,2.1216,2.1216,2.1229,2.1229,2.1229,2.1229,2.124,2.124,2.1241,0,0,0,0,0,0,0,0,0,0,0,0,0,2.1188,2.1188,2.1203,2.1203,2.1203,2.1215,2.1216,2.1216,2.1229,2.1229,2.1229,2.1229,2.124,2.124,2.1241,0,0,0,0,0,0,0,0,0,0,0,0,0,2.1197,2.1189,2.1203,2.1211,2.1212,2.1215,2.1216,2.1216,2.1228,2.1229,2.1229,2.1229,2.124,2.124,2.1241,2.1236,0,0,2.1241,2.1241,0,0,0,0,0,0,0,0,2.1197,2.1198,2.121,2.121,2.1211,2.1221,2.1215,2.1223,2.1228,2.1222,2.1229,2.1229,2.1233,2.1234,2.1236,2.1237,2.1237,2.1241,2.1241,2.1241,2.1241,0,0,0,0,0,0,0,2.1196,2.1197,2.1208,2.121,2.1211,2.1214,2.1215,2.1216,2.1226,2.1223,2.1224,2.1225,2.1234,2.1236,2.1236,2.1238,2.1241,2.1241,2.1241,2.1242,2.1236,2.1236,0,0,0,0,0,0,2.1194,2.1197,2.1207,2.1208,2.1205,2.1214,2.1215,2.1217,2.1226,2.1228,2.1225,2.1226,2.1235,2.1236,2.1237,2.1233,2.1241,2.1242,2.1242,2.1237,2.1236,2.1236,0,0,0,0,0,0,2.1194,2.1195,2.1207,2.1203,2.1204,2.1214,2.1216,2.1218,2.1219,2.1228,2.1229,2.1225,2.1235,2.1236,2.1237,2.1234,2.1242,2.1242,2.1237,2.1237,2.1236,2.1225,0,0,0,0,0,0,2.1193,2.1195,2.1194,2.1203,2.1205,2.1207,2.1216,2.1218,2.122,2.1221,2.1228,2.123,2.1236,2.1236,2.1237,2.1234,2.1242,2.1237,2.1237,2.1236,2.1226,2.1225,2.1223,0,0,0,0,0,2.1193,2.119,2.1194,2.1195,2.1203,2.1207,2.1208,2.1215,2.122,2.1218,2.1224,2.1229,2.1234,2.1236,2.1237,2.1234,2.1238,2.1237,2.1236,2.1227,2.1225,2.1223,0,0,0,0,0,0,2.1179,2.1191,2.1195,2.1195,2.12,2.1209,2.1208,2.1213,2.1217,2.1217,2.1226,2.1228,2.1227,2.123,2.1233,2.1231,2.1236,2.1236,2.1229,2.1227,2.1226,2.1225,2.1242,0,0,0,0,0,2.1177,2.1179,2.1189,2.1187,2.119,2.1198,2.12,2.1205,2.1211,2.1212,2.1218,2.1222,2.1225,2.1226,2.1229,2.1226,2.1228,2.1225,2.1223,2.1222,2.1222,2.1222,2.122,2.1234,2.1234,2.1234,0,0,2.117,2.1177,2.1178,2.1185,2.1189,2.1191,2.12,2.1201,2.1203,2.1212,2.1214,2.1218,2.1223,2.1222,2.1222,2.1225,2.1219,2.1222,2.1221,2.1221,2.1221,2.122,2.1218,2.1234,2.1234,2.1234,0,0,2.116,2.1165,2.1165,2.117,2.1177,2.1182,2.1182,2.1191,2.1194,2.1195,2.1203,2.1204,2.1208,2.1212,2.1214,2.1206,2.1212,2.1207,2.12,2.12,2.1198,2.1198,2.1195,2.1194,2.1206,2.1206,2.1206,0,2.1151,2.1155,2.1164,2.1166,2.1169,2.1178,2.1178,2.1182,2.1189,2.119,2.1194,2.1199,2.1203,2.1204,2.1202,2.1203,2.1204,2.1206,2.1198,2.1197,2.1196,2.1194,2.1193,2.1206,2.1206,2.1206,2.1206,0,2.1145,2.1147,2.1146,2.1154,2.1157,2.1157,2.1166,2.1167,2.1172,2.1178,2.1179,2.1184,2.1189,2.1189,2.1194,2.119,2.1192,2.1196,2.1202,2.1194,2.1192,2.1192,2.1205,2.1205,2.1205,2.1205,0,0,2.1126,2.1139,2.1139,2.1143,2.1151,2.1153,2.1154,2.1159,2.116,2.1165,2.1166,2.1169,2.1174,2.1176,2.1182,2.1181,2.1175,2.1186,2.1186,2.1184,2.1172,2.1169,2.1168,2.1179,2.1178,2.1178,2.1172,0,2.1118,2.1121,2.1129,2.113,2.1133,2.1142,2.1143,2.1148,2.1153,2.1155,2.1161,2.1163,2.1169,2.117,2.117,2.1176,2.1173,2.1176,2.118,2.118,2.1179,2.1167,2.1163,2.1157,2.1171,2.1171,2.1171,0,2.1109,2.1114,2.1115,2.1124,2.1126,2.1126,2.1132,2.1134,2.114,2.1144,2.1147,2.1153,2.1154,2.116,2.1161,2.1164,2.1165,2.1168,2.1168,2.1169,2.1175,2.1168,2.1155,2.1154,2.1169,2.117,2.117,0,2.1096,2.1103,2.1105,2.1108,2.1118,2.1119,2.1123,2.1129,2.1132,2.1136,2.1138,2.1142,2.1144,2.1147,2.1154,2.1157,2.1156,2.1161,2.1159,2.1158,2.1158,2.1158,2.1146,2.1158,2.1158,2.1158,2.1158,0,2.1086,2.1087,2.11,2.1101,2.1101,2.111,2.1111,2.1116,2.1121,2.1123,2.1131,2.1133,2.1142,2.1144,2.1149,2.115,2.1151,2.1154,2.1155,2.1154,2.1153,2.1155,2.1156,2.1158,2.1158,2.1158,2.1158,0,2.1072,2.1081,2.1084,2.1094,2.1096,2.1096,2.1105,2.1106,2.1112,2.1114,2.1115,2.1124,2.1127,2.1134,2.1139,2.1143,2.1143,2.1145,2.1141,2.1142,2.1139,2.114,2.1128,2.1127,2.114,2.114,2.114,0,2.1066,2.1067,2.1077,2.108,2.1084,2.1087,2.109,2.1099,2.1102,2.1109,2.1109,2.1114,2.1118,2.1122,2.1129,2.1133,2.1135,2.1131,2.1136,2.1134,2.1136,2.1136,2.1136,2.113,2.113,2.113,2.113,0,2.1054,2.1058,2.1063,2.1069,2.1072,2.1077,2.1082,2.1084,2.1094,2.1096,2.11,2.1103,2.1109,2.1113,2.1118,2.1122,2.1127,2.1128,2.1128,2.1126,2.1124,2.1126,2.1139,2.1128,2.1129,2.1129,2.1129,2.1129,2.1044,2.1045,2.1053,2.1058,2.1063,2.1068,2.107,2.1076,2.108,2.1086,2.1091,2.1094,2.11,2.1108,2.1111,2.1114,2.1117,2.1116,2.1116,2.1116,2.1115,2.1123,2.1115,2.1115,2.1115,2.1115,2.1115,0,2.1032,2.1038,2.1043,2.105,2.1054,2.106,2.1066,2.1069,2.1072,2.1078,2.1082,2.1086,2.109,2.1097,2.1102,2.1103,2.1105,2.1104,2.1104,2.1105,2.1112,2.1113,2.1101,2.1101,2.1101,2.1101,2.1101,2.1101,2.1027,2.103,2.1035,2.1041,2.1046,2.1051,2.1054,2.1058,2.1063,2.1068,2.1072,2.1077,2.1083,2.1088,2.1092,2.1094,2.1095,2.1093,2.1096,2.1103,2.1104,2.1105,2.1106,2.1093,2.1093,2.1088,2.1088,2.1088]}]]